Weather History for Meadow Lake, CO

Change the Weather History Date:

Monday, December 2, 2013

  Actual Average (KCOS) Record (KCOS)
Temperature  
Mean Temperature 44 °F 32 °F  
Max Temperature 55 °F 44 °F 68 °F (1926)
Min Temperature 32 °F 19 °F -7 °F (1929)
Degree Days  
Heating Degree Days 22 33  
Month to date heating degree days 66  
Since 1 July heating degree days 1547  
Cooling Degree Days 0 0  
Month to date cooling degree days 0  
Year to date cooling degree days 455  
Moisture  
Dew Point 18 °F    
Average Humidity 36    
Maximum Humidity 64    
Minimum Humidity 21    
Precipitation  
Precipitation 0.00 in 0.02 in 0.38 in (1933)
Month to date precipitation 0.03  
Year to date precipitation 16.23  
Snow  
Snow 0.00 in 0.20 in 4.60 in (1984)
Month to date snowfall 0.4  
Since 1 July snowfall 8.2  
Snow Depth -    
Sea Level Pressure  
Sea Level Pressure 29.79 in    
Wind  
Wind Speed 10 mph (WNW)    
Max Wind Speed 21 mph    
Max Gust Speed 32 mph    
Visibility 10 miles    
Events      
T = Trace of Precipitation, MM = Missing Value Source: NWS Daily Summary

Daily Weather History Graph

Daily Weather History Graph

Search for Another Location

Airport:

Trip Planner

Search our weather history database for the weather conditions in past years. The results will help you decide how hot, cold, wet, or windy it might be!

Date:

Astronomy

Dec. 02, 2013 Rise Set
Actual Time 6:59 AM MST 4:36 PM MST
Civil Twilight 6:29 AM MST 5:05 PM MST
Nautical Twilight 5:56 AM MST 5:38 PM MST
Astronomical Twilight 5:24 AM MST 6:11 PM MST
Moon 6:27 AM MST (12/2) 4:41 PM MST (12/2)
Length of Visible Light 10h 36m
Length of Day
9h 37m
Waning Crescent, 0% of the Moon is Illuminated
Dec 2
Waning Crescent
Dec 2
New
Dec 9
First Quarter
Dec 17
Full
Dec 25
Last Quarter

Hourly Weather History & Observations

Time (MST) Temp. Windchill Dew Point Humidity Pressure Visibility Wind Dir Wind Speed Gust Speed Precip Events Conditions
12:13 AM 40.5 °F 36.5 °F 21.4 °F 47% 29.94 in 10.0 mi NNW 5.8 mph - N/A   Clear
12:33 AM 37.2 °F 33.6 °F 21.2 °F 52% 29.95 in 10.0 mi North 4.6 mph - N/A   Clear
12:53 AM 32.2 °F 25.8 °F 21.2 °F 64% 29.94 in 10.0 mi NW 6.9 mph - N/A   Clear
1:13 AM 34.2 °F 25.2 °F 21.9 °F 61% 29.93 in 10.0 mi WNW 12.7 mph - N/A   Clear
1:33 AM 36.1 °F 28.2 °F 21.7 °F 56% 29.94 in 10.0 mi WNW 11.5 mph - N/A   Clear
1:53 AM 35.2 °F 29.5 °F 21.6 °F 58% 29.94 in 10.0 mi NW 6.9 mph - N/A   Clear
2:13 AM 36.9 °F 29.6 °F 22.1 °F 55% 29.94 in 10.0 mi NNW 10.4 mph 18.4 mph N/A   Clear
2:33 AM 38.3 °F 33.2 °F 22.1 °F 52% 29.94 in 10.0 mi NNW 6.9 mph 16.1 mph N/A   Clear
2:53 AM 36.7 °F 32.9 °F 21.7 °F 55% 29.93 in 10.0 mi NNW 4.6 mph - N/A   Clear
3:13 AM 36.5 °F 32.7 °F 21.9 °F 56% 29.92 in 10.0 mi NNW 4.6 mph - N/A   Clear
3:33 AM 32.9 °F 25.9 °F 20.8 °F 61% 29.91 in 10.0 mi West 8.1 mph - N/A   Clear
3:53 AM 32.5 °F 22.7 °F 21.4 °F 64% 29.90 in 10.0 mi SW 13.8 mph - N/A   Clear
4:13 AM 36.5 °F 28.2 °F 20.3 °F 52% 29.89 in 10.0 mi West 12.7 mph - N/A   Clear
4:33 AM 38.5 °F 30.7 °F 19.4 °F 46% 29.89 in 10.0 mi West 12.7 mph - N/A   Clear
4:53 AM 36.7 °F 29.9 °F 18.5 °F 48% 29.88 in 10.0 mi WNW 9.2 mph - N/A   Clear
5:13 AM 36.1 °F 31.4 °F 18.7 °F 49% 29.87 in 10.0 mi West 5.8 mph - N/A   Clear
5:33 AM 37.0 °F 31.6 °F 19.4 °F 49% 29.87 in 10.0 mi WNW 6.9 mph - N/A   Clear
5:53 AM 39.4 °F 32.3 °F 19.0 °F 44% 29.88 in 10.0 mi West 11.5 mph - N/A   Clear
6:13 AM 38.3 °F 30.5 °F 18.7 °F 45% 29.88 in 10.0 mi WSW 12.7 mph - N/A   Clear
6:33 AM 37.6 °F 29.6 °F 18.0 °F 45% 29.88 in 10.0 mi NW 12.7 mph - N/A   Clear
6:53 AM 37.9 °F 32.7 °F 18.1 °F 45% 29.87 in 10.0 mi West 6.9 mph - N/A   Clear
7:13 AM 38.5 °F 32.1 °F 18.1 °F 44% 29.86 in 10.0 mi West 9.2 mph - N/A   Clear
7:33 AM 40.1 °F 34.1 °F 18.9 °F 43% 29.86 in 10.0 mi West 9.2 mph - N/A   Clear
7:53 AM 43.7 °F 37.7 °F 18.7 °F 37% 29.85 in 10.0 mi West 11.5 mph - N/A   Clear
8:13 AM 44.1 °F 38.6 °F 18.1 °F 35% 29.85 in 10.0 mi West 10.4 mph - N/A   Clear
8:33 AM 45.5 °F 39.9 °F 18.3 °F 34% 29.86 in 10.0 mi WNW 11.5 mph - N/A   Clear
8:53 AM 45.5 °F 41.8 °F 18.7 °F 34% 29.86 in 10.0 mi NW 6.9 mph - N/A   Clear
9:13 AM 46.4 °F 40.4 °F 19.4 °F 34% 29.84 in 10.0 mi West 13.8 mph - N/A   Clear
9:33 AM 46.8 °F - 18.9 °F 33% 29.84 in 10.0 mi West 15.0 mph - N/A   Clear
9:53 AM 49.3 °F - 19.0 °F 30% 29.84 in 10.0 mi WNW 12.7 mph - N/A   Clear
10:13 AM 50.7 °F - 18.0 °F 27% 29.83 in 10.0 mi WNW 18.4 mph 25.3 mph N/A   Clear
10:33 AM 51.8 °F - 17.6 °F 26% 29.82 in 10.0 mi West 13.8 mph 19.6 mph N/A   Clear
10:53 AM 52.7 °F - 17.6 °F 25% 29.81 in 10.0 mi West 6.9 mph 16.1 mph N/A   Clear
11:13 AM 53.4 °F - 17.4 °F 24% 29.80 in 10.0 mi West 10.4 mph 17.3 mph N/A   Clear
11:33 AM 55.0 °F - 17.1 °F 23% 29.78 in 10.0 mi WNW 10.4 mph 17.3 mph N/A   Clear
11:53 AM 54.3 °F - 16.0 °F 22% 29.77 in 10.0 mi SW 6.9 mph 26.5 mph N/A   Clear
12:13 PM 55.6 °F - 15.8 °F 21% 29.76 in 10.0 mi SW 6.9 mph - N/A   Clear
12:33 PM 54.7 °F - 14.9 °F 21% 29.76 in 10.0 mi West 17.3 mph 24.2 mph N/A   Clear
12:53 PM 54.3 °F - 14.7 °F 21% 29.74 in 10.0 mi West 17.3 mph 24.2 mph N/A   Clear
1:13 PM 54.0 °F - 15.4 °F 22% 29.74 in 10.0 mi West 19.6 mph 24.2 mph N/A   Clear
1:33 PM 54.9 °F - 15.3 °F 21% 29.75 in 10.0 mi West 16.1 mph 24.2 mph N/A   Clear
1:53 PM 54.1 °F - 15.4 °F 22% 29.74 in 10.0 mi West 13.8 mph 25.3 mph N/A   Clear
2:13 PM 53.6 °F - 15.6 °F 22% 29.73 in 10.0 mi West 12.7 mph 20.7 mph N/A   Clear
2:33 PM 52.7 °F - 16.0 °F 23% 29.73 in 10.0 mi West 12.7 mph 20.7 mph N/A   Clear
2:53 PM 52.2 °F - 15.8 °F 24% 29.73 in 10.0 mi West 15.0 mph 20.7 mph N/A   Clear
3:13 PM 51.4 °F - 16.2 °F 25% 29.73 in 10.0 mi West 12.7 mph 20.7 mph N/A   Clear
3:33 PM 50.9 °F - 15.4 °F 24% 29.73 in 10.0 mi West 11.5 mph 19.6 mph N/A   Clear
3:53 PM 51.4 °F - 15.4 °F 24% 29.72 in 10.0 mi WNW 9.2 mph - N/A   Clear
4:13 PM 50.0 °F - 14.7 °F 25% 29.72 in 10.0 mi WNW 15.0 mph 21.9 mph N/A   Clear
4:33 PM 48.6 °F - 14.5 °F 26% 29.72 in 10.0 mi WNW 16.1 mph 23.0 mph N/A   Clear
4:53 PM 46.4 °F 41.1 °F 14.5 °F 28% 29.73 in 10.0 mi WNW 11.5 mph 17.3 mph N/A   Clear
5:13 PM 46.0 °F 41.4 °F 14.9 °F 29% 29.73 in 10.0 mi WNW 9.2 mph - N/A   Clear
5:33 PM 46.0 °F 41.0 °F 15.1 °F 29% 29.72 in 10.0 mi WNW 10.4 mph - N/A   Clear
5:53 PM 45.7 °F 39.1 °F 15.8 °F 30% 29.72 in 10.0 mi WNW 15.0 mph - N/A   Clear
6:13 PM 46.2 °F 39.3 °F 16.2 °F 30% 29.71 in 10.0 mi West 17.3 mph 23.0 mph N/A   Clear
6:33 PM 46.9 °F - 16.5 °F 30% 29.69 in 10.0 mi West 17.3 mph 26.5 mph N/A   Clear
6:53 PM 45.5 °F 39.6 °F 16.5 °F 31% 29.69 in 10.0 mi WNW 12.7 mph - N/A   Clear
7:13 PM 45.9 °F 39.4 °F 16.5 °F 31% 29.69 in 10.0 mi WNW 15.0 mph - N/A   Clear
7:33 PM 45.5 °F 40.8 °F 16.3 °F 31% 29.69 in 10.0 mi West 9.2 mph - N/A   Clear
7:53 PM 47.3 °F - 15.6 °F 28% 29.69 in 10.0 mi WNW 15.0 mph 20.7 mph N/A   Clear
8:13 PM 46.8 °F - 15.8 °F 29% 29.68 in 10.0 mi West 12.7 mph - N/A   Clear
8:33 PM 47.5 °F - 15.3 °F 28% 29.67 in 10.0 mi West 18.4 mph 24.2 mph N/A   Clear
8:53 PM 46.0 °F 39.6 °F 15.6 °F 30% 29.67 in 10.0 mi West 15.0 mph - N/A   Clear
9:13 PM 44.6 °F 37.4 °F 15.8 °F 31% 29.67 in 10.0 mi West 16.1 mph - N/A   Clear
9:33 PM 44.6 °F 37.8 °F 15.6 °F 31% 29.67 in 10.0 mi WNW 15.0 mph - N/A   Clear
9:53 PM 44.6 °F 37.8 °F 15.6 °F 31% 29.66 in 10.0 mi WNW 15.0 mph 24.2 mph N/A   Clear
10:13 PM 45.7 °F 38.3 °F 15.6 °F 30% 29.67 in 10.0 mi WNW 18.4 mph - N/A   Clear
10:33 PM 46.0 °F 38.3 °F 16.5 °F 31% 29.67 in 10.0 mi WNW 20.7 mph 32.2 mph N/A   Clear
10:53 PM 44.2 °F 37.3 °F 16.9 °F 33% 29.67 in 10.0 mi WNW 15.0 mph 25.3 mph N/A   Clear
11:13 PM 44.2 °F 38.0 °F 17.1 °F 34% 29.67 in 10.0 mi West 12.7 mph 23.0 mph N/A   Clear
11:33 PM 43.2 °F 37.4 °F 17.1 °F 35% 29.67 in 10.0 mi WSW 10.4 mph - N/A   Clear
11:53 PM 43.7 °F 36.3 °F 16.7 °F 34% 29.66 in 10.0 mi WSW 16.1 mph 19.6 mph N/A   Clear